Weather in Letneozerskiy

Russia / Arkhangel'skaya Oblast'     63°22′17″N   40°20′48″E
temp.,
°C
wind,
m/s
gust,
m/s
humid.,
%
clouds,
%
prec.,
mm/h
press.,
hPa
HPBL,
m
23 april, fri
fri2300:00+2sw4883100 0.0 1011751
03:00+2ssw398717 0.1 1012381
06:00+2s269425 0.0 1013161
09:00+7sse367494 0.0 1013452
12:00+13sse595654 0.0 10121415
15:00+14sse5954100 0.3 10111730
18:00+12sse51067100 1.3 1011850
21:00+10se41379100 1.7 1010539
24 april, sat
sat2400:00+9sse4128496 0.1 1010507
03:00+8sse4129085 0.1 1010605
06:00+8se41192100 0.0 1011584
09:00+10se4878100 0.0 1010862
12:00+13se6106197 0.7 10091629
15:00+15se5104959 1.5 10082231
18:00+13se5115615 0.3 10081524
21:00+9ese513665 0.3 1008688
25 april, sun
sun2500:00+7ese412755 0.0 1007537
03:00+6e4118550 0.0 1007440
06:00+5e41087100 0.0 1006494
09:00+7e4778100 0.0 1005617
12:00+7e4779100 0.2 10051119
15:00+6ene3793100 0.8 1005891
18:00+6ene3790100 0.4 1004711
21:00+5ne2791100 0.5 1004239
26 april, mon
mon2600:00+4ene2694100 0.2 1003501
03:00+4ne2598100 0.8 1003827
06:00+4ne2696100 0.6 1003683
09:00+4ne2594100 0.8 1002598
12:00+5nne2491100 0.1 1003569
15:00+6ne3484100 0.5 1002884
18:00+5nne1393100 0.7 1002272
21:00+4nne1397100 1.3 1002179
27 april, tue
tue2700:00+4n1398100 1.1 1002535
03:00+3n2398100 1.4 1001553
06:00+3n1498100 0.6 1001656
09:00+3nne2497100 1.1 1001663
12:00+3nnw3698100 0.9 1001491
15:00+2nnw3898100 1.6 1002354
18:00+2nnw3896100 0.1 1002568
21:000nnw4997100 0.5 1002484